Meteo Giornale » Osservazioni meteo Canada » Hamilton
ore: 21:00 - Osservazioni Meteo Hamilton
Lat. 43° 10' N Lon. 79° 56' W Alt. 237 metri s.l.m.
22 °C
Molto Nuvoloso
Temp. 24 Ore
18 °C
23 °C
Sud/Sud-Est
11.1 Km/h
Dew point 21 °C
Umidità 94 %
Visibilità 24 Km
Il sole sorge alle ore 06:43
Il sole tramonta alle ore 19:56
| Data e Ora | Cielo e Fenomeni | T °C | DP °C | Um. % | Pres. hPa | Vis. km | Vento km/h | |
|---|---|---|---|---|---|---|---|---|
| Oggi h: 21:00 | Molto Nuvoloso | 22 | 21 | 94 | 1016 | 24 | S/SE 11.1 | |
| Oggi h: 20:00 | Molto Nuvoloso | 22 | 21 | 94 | 1016 | 24 | N 3.7 | |
| Oggi h: 19:00 | Molto Nuvoloso | 23 | 22 | 94 | 1016 | 24 | S 7.4 | |
| Oggi h: 18:00 | Molto Nuvoloso | 23 | 22 | 94 | 1016 | 10 | SO 11.1 | |
| Oggi h: 17:00 | Molto Nuvoloso | 23 | 22 | 94 | 1016 | 13 | O/SO 11.1 | |
| Oggi h: 16:00 | Pioggia Foschia | 23 | 22 | 94 | 1016 | 5 | O/SO 13 | |
| Oggi h: 15:00 | Pioggia Foschia | 23 | 21 | 88 | 1017 | 6 | O/SO 18.5 | |
| Oggi h: 14:00 | Pioggia Foschia | 23 | 22 | 94 | 1017 | 2 | S/SO 9.3 | |
| Oggi h: 13:50 | Pioggia Foschia | 23 | 22 | 94 | 1017 | 5 | SO 7.4 | |
| Oggi h: 13:25 | Foschia | 23 | 22 | 94 | 1017 | 5 | SO 9.3 | |
| Oggi h: 13:00 | Pioggia Foschia | 23 | 22 | 94 | 1017 | 5 | SO 9.3 | |
| Oggi h: 12:48 | Pioggia Foschia | 23 | 22 | 94 | 1017 | 5 | N 5.5 | |
| Oggi h: 12:00 | Foschia | 22 | 21 | 94 | 1017 | 6 | SO 14.8 | |
| Oggi h: 11:29 | Foschia | 22 | 21 | 94 | 1017 | 6 | SO 11.1 | |
| Oggi h: 11:00 | Foschia | 22 | 21 | 94 | 1018 | 5 | SO 7.4 | |
| Oggi h: 10:27 | Foschia | 20 | 20 | 100 | 1017 | 5 | S 7.4 | |
| Oggi h: 10:00 | Pioggia Foschia | 20 | 20 | 100 | 1017 | 5 | N 5.5 | |
| Oggi h: 09:20 | Pioggia Foschia | 19 | 19 | 100 | 1017 | 5 | S/SE 7.4 | |
| Oggi h: 09:15 | Pioggia Foschia | 19 | 19 | 100 | 1017 | 2 | S 7.4 | |
| Oggi h: 09:00 | Pioggia Foschia | 19 | 19 | 100 | 1017 | 2 | N 3.7 | |
| Oggi h: 08:50 | Pioggia Foschia | 19 | 19 | 100 | 1017 | 2 | N 5.5 | |
| Oggi h: 08:39 | Pioggia Foschia | 19 | 19 | 100 | 1017 | 2 | S 7.4 | |
| Oggi h: 08:00 | Pioviggine Foschia | 19 | 19 | 100 | 1017 | 5 | S 7.4 | |
| Oggi h: 07:39 | Pioviggine Foschia | 19 | 19 | 100 | 1018 | 5 | N 5.5 | |
| Oggi h: 07:00 | Coperto | 19 | 19 | 100 | 1017 | 11 | S/SE 9.3 | |
| Oggi h: 06:00 | Pioggia | 19 | 19 | 100 | 1017 | 13 | S/SE 7.4 | |
| Oggi h: 05:00 | Coperto | 19 | 18 | 93 | 1017 | 13 | SE 7.4 | |
| Oggi h: 04:00 | Foschia | 19 | 18 | 93 | 1018 | 10 | SE 13 | |
| Oggi h: 03:11 | Foschia | 19 | 18 | 93 | 1018 | 10 | SE 7.4 | |
| Oggi h: 03:00 | Pioggia Foschia | 19 | 18 | 93 | 1019 | 10 | E/SE 7.4 | |
| Oggi h: 02:18 | Pioggia Foschia | 18 | 18 | 100 | 1019 | 10 | S/SE 13 | |
| Oggi h: 02:00 | Pioggia | 18 | 18 | 100 | 1019 | 13 | S/SE 9.3 | |
| Oggi h: 01:22 | Pioggia | 19 | 18 | 93 | 1019 | 13 | N 5.5 | |
| Oggi h: 01:00 | Pioggia | 18 | 18 | 100 | 1019 | 13 | S/SE 7.4 | |
| Oggi h: 00:40 | Pioggia Foschia | 19 | 18 | 93 | 1019 | 10 | E/SE 7.4 | |
| Oggi h: 00:00 | Foschia | 18 | 18 | 100 | 1019 | 10 | S/SE 9.3 | |
| Ieri h: 23:00 | Foschia | 18 | 18 | 100 | 1019 | 6 | S/SE 9.3 | |
| Ieri h: 22:13 | Foschia | 19 | 18 | 93 | 1019 | 6 | S/SE 11.1 | |
| Ieri h: 22:00 | Pioggia Foschia | 18 | 18 | 100 | 1019 | 6 | S/SE 11.1 | |
| Ieri h: 21:50 | Pioggia Foschia | 18 | 18 | 100 | 1019 | 6 | S/SE 11.1 | |
| Ieri h: 21:39 | Pioggia Foschia | 19 | 18 | 93 | 1019 | 2 | S/SE 9.3 | |



